Powrót do katalogu

CZ-4 DEB

AktywnySSO
NORAD 26454·DEBRIS·🇨🇳 China

Wystrzelony Oct 14, 1999 z Taiyuan Satellite Launch Center

Loading…

Następne Przeloty (najbliższe 24 godziny)

TLE

ŚwieżeSource: Space-Track

Epoka: Sep 14, 2026, 03:28 UTC

1 26454U 99057KZ  26257.14506190  .00003922  00000-0  56880-3 0  9995
2 26454  98.3141 327.5347 0052089 179.7970 210.7169 14.75724997384730

Śledź CZ-4 DEB w czasie rzeczywistym z AllMySat

Download on the App Store